Find NNS 30320-48

NORAD ID: 19071 Int'l Des: 1988-033 Owner: NAVAIR Country: US operational
LEORETROGRADE

Current View

Loading 3D Globe...

About NNS 30320-48

NNS 30320-48 (NORAD 19071) is a satellite launched Apr 26, 1988 by NAVAIR of US. It operates in LEO, RETROGRADE orbit with a mass of 64.00 kg.

Upcoming Passes

Passes for default location (London). Set your location on the main map for personalized predictions.

Altitude History

Loading altitude history...

Two-Line Element Set

1 19071U 88033B 26195.56136678 .00000032 00000-0 53122-4 0 9997
2 19071 90.3271 23.2948 0185974 292.6716 126.6486 13.27983202851034
Epoch: Jul 14, 2026 • Age: 10 hours

Current Status

Altitude 1118.5 km
Apogee / Perigee N/A
Velocity 7.32 km/s
Sub-Earth Point -42.69°S, 79.98°W
Launch Date Apr 26, 1988
Age 38.2 years
Type other

Technical Details

Classification Payload
Mass 64.00 kg
Dry Mass 64.00 kg
Total Mass 64.00 kg
Length 0.30 m
Diameter 0.50 m
Span 30.00 m
Shape Oct Cyl + 4 Pan + Ant
Manufacturer GEEW
Bus Type Transit 5
Phase Status In Orbit
Owner/State NAVAIR/US

Most Searched